Погода в Кереме

Турция     39°21′41″N   26°47′58″E
темп.,
°C
ветер,
м/с
пор.,
м/с
влажн.,
%
обл.,
%
осадки,
мм/ч
давл.,
гПа
погр.,
м
21 января, пт
пт2100:00+7юв596394 0.1 1022311
03:00+7юв7107144 0.2 1021352
06:00+7юв712779 0.0 1019427
09:00+7юв6108232 0.0 1019309
12:00+10ююв81378100 0.1 1019727
15:00+13ю686494 0.9 10161217
18:00+12юз7107674 2.6 1015640
21:00+11зсз2479100 5.6 1015253
22 января, сб
сб2200:00+9св2389100 1.7 1015203
03:00+7св2390100 3.0 1015223
06:00+5св4588100 1.1 1014367
09:00+3св7989100 2.3 1015635
12:00+1ссв6994100 4.8 1016547
15:00+2св6875100 6.1 1014658
18:00+2св7974100 0.0 1015677
21:00−1св57742 0.0 1017352
23 января, вс
вс2300:00−1св46680 0.0 1018424
03:000с811672 0.0 1019871
06:00−1ссв69692 0.0 1019702
09:00−1ссв46670 0.0 1020481
12:00+2ссв56510 0.0 10221105
15:00+3с45435 0.0 10211642
18:00+2св33505 0.0 1021660
21:00−1в34595 0.0 1023331
24 января, пн
пн2400:00−1в335760 0.0 1023280
03:00−1вюв225465 0.0 1022282
06:00−1в3358100 0.0 1023299
09:000всв4562100 0.0 1023349
12:00+2св5654100 0.0 1024982
15:00+3св774980 0.0 10231337
18:00+1св710665 0.0 1024723
21:00−1св6127534 0.0 1025585
25 января, вт
вт2500:00−1св61175100 0.0 1026576
03:00−1св7127486 0.0 1025594
06:00−2ссв610734 0.0 1025605
09:00−2ссв697436 0.0 1026512
12:00+2ссв8105384 0.0 10261189
15:00+2ссв6750100 0.0 10241392
18:00+1св575831 0.0 1024615
21:00−2св47695 0.0 1024327